When you browse on this site, cookies collect data to enhance your experience and personalize the content and advertising you see.
Visit our Privacy Policy to learn more. By continuing to use the site, you agree to this use of cookies and data.
  • In Switzerland
  • List of Countries
  • For 7 days
  • Water Temperature
  • Satellite Maps
  • Weather Map
  • Weather Widgets
  • user-avatar
    Login

    Hourly Weather Memmingen

    Today, 19 July, Friday

    Time Temperature Precipitation Wind Pressure Humidity
    00:00 +16°C° 0.1 mm 1 mps 709 mmHg 84%
    01:00 +14°C° 0 mm 0 mps 709 mmHg 86%
    02:00 +15°C° 0.2 mm 1 mps 709 mmHg 87%
    03:00 +15°C° 0.2 mm 1 mps 709 mmHg 88%
    04:00 +15°C° 0.2 mm 2 mps 709 mmHg 89%
    05:00 +15°C° 0.1 mm 2 mps 709 mmHg 89%
    06:00 +16°C° 0.1 mm 2 mps 709 mmHg 89%
    07:00 +17°C° 0.1 mm 2 mps 710 mmHg 89%
    08:00 +18°C° 0.3 mm 3 mps 710 mmHg 84%
    09:00 +20°C° 0.3 mm 3 mps 710 mmHg 80%
    10:00 +22°C° 0.3 mm 3 mps 710 mmHg 75%
    11:00 +22°C° 0.6 mm 3 mps 710 mmHg 74%
    12:00 +24°C° 0.6 mm 3 mps 710 mmHg 72%
    13:00 +24°C° 0.6 mm 3 mps 710 mmHg 70%
    14:00 +25°C° 0.1 mm 3 mps 710 mmHg 67%
    15:00 +25°C° 0.1 mm 3 mps 710 mmHg 64%
    16:00 +26°C° 0.1 mm 3 mps 710 mmHg 61%
    17:00 +24°C° 0.2 mm 2 mps 710 mmHg 70%
    18:00 +23°C° 0.2 mm 2 mps 710 mmHg 79%
    19:00 +22°C° 0.2 mm 1 mps 710 mmHg 88%
    20:00 +20°C° 0 mm 1 mps 710 mmHg 89%
    21:00 +19°C° 0 mm 1 mps 710 mmHg 90%
    22:00 +16°C° 0 mm 0 mps 710 mmHg 91%
    23:00 +16°C° 0 mm 1 mps 710 mmHg 91%

    Tomorrow, 20 July, Saturday

    Time Temperature Precipitation Wind Pressure Humidity
    00:00 +16°C° 0 mm 1 mps 710 mmHg 92%
    01:00 +15°C° 0 mm 1 mps 710 mmHg 92%
    02:00 +15°C° 0 mm 1 mps 710 mmHg 92%
    03:00 +15°C° 0 mm 1 mps 710 mmHg 92%
    04:00 +15°C° 0 mm 1 mps 710 mmHg 92%
    05:00 +16°C° 0 mm 1 mps 710 mmHg 91%
    06:00 +18°C° 0 mm 1 mps 710 mmHg 89%
    07:00 +20°C° 0 mm 1 mps 710 mmHg 88%
    08:00 +22°C° 0 mm 1 mps 710 mmHg 79%
    09:00 +24°C° 0 mm 1 mps 711 mmHg 71%
    10:00 +26°C° 0 mm 1 mps 711 mmHg 63%
    11:00 +27°C° 0 mm 2 mps 711 mmHg 61%
    12:00 +27°C° 0 mm 2 mps 711 mmHg 58%
    13:00 +28°C° 0 mm 3 mps 711 mmHg 55%
    14:00 +28°C° 0 mm 3 mps 711 mmHg 56%
    15:00 +29°C° 0 mm 3 mps 711 mmHg 57%
    16:00 +29°C° 0 mm 3 mps 711 mmHg 58%
    17:00 +27°C° 0 mm 2 mps 711 mmHg 63%
    18:00 +26°C° 0 mm 2 mps 711 mmHg 68%
    19:00 +25°C° 0 mm 2 mps 711 mmHg 73%
    20:00 +23°C° 0.3 mm 2 mps 711 mmHg 77%
    21:00 +22°C° 0.3 mm 1 mps 711 mmHg 80%
    22:00 +20°C° 0.3 mm 1 mps 711 mmHg 84%
    23:00 +19°C° 0.3 mm 1 mps 711 mmHg 86%

    Day after tomorrow, 21 July, Sunday

    Time Temperature Precipitation Wind Pressure Humidity
    00:00 +19°C° 0.3 mm 1 mps 712 mmHg 87%
    01:00 +18°C° 0.3 mm 1 mps 712 mmHg 89%
    02:00 +17°C° 0.4 mm 2 mps 712 mmHg 90%
    03:00 +17°C° 0.4 mm 2 mps 712 mmHg 91%
    04:00 +17°C° 0.4 mm 2 mps 712 mmHg 92%
    05:00 +17°C° 0.3 mm 3 mps 712 mmHg 93%
    06:00 +18°C° 0.3 mm 3 mps 712 mmHg 93%
    07:00 +19°C° 0.3 mm 4 mps 713 mmHg 93%
    08:00 +20°C° 0.3 mm 4 mps 713 mmHg 90%
    09:00 +21°C° 0.3 mm 3 mps 713 mmHg 87%
    10:00 +24°C° 0.3 mm 3 mps 714 mmHg 83%
    11:00 +25°C° 0.4 mm 3 mps 714 mmHg 79%
    12:00 +25°C° 0.4 mm 3 mps 714 mmHg 74%
    13:00 +26°C° 0.4 mm 4 mps 714 mmHg 69%
    14:00 +26°C° 0.4 mm 3 mps 714 mmHg 71%
    15:00 +26°C° 0.4 mm 3 mps 715 mmHg 73%
    16:00 +26°C° 0.4 mm 2 mps 715 mmHg 74%
    17:00 +25°C° 0.2 mm 2 mps 715 mmHg 78%
    18:00 +24°C° 0.2 mm 1 mps 715 mmHg 82%
    19:00 +21°C° 0.2 mm 0 mps 715 mmHg 85%
    20:00 +20°C° 0 mm 0 mps 715 mmHg 87%
    21:00 +19°C° 0 mm 0 mps 715 mmHg 89%
    22:00 +17°C° 0 mm 0 mps 715 mmHg 90%
    23:00 +17°C° 0 mm 0 mps 715 mmHg 91%

    22 July, Monday

    Time Temperature Precipitation Wind Pressure Humidity
    00:00 +17°C° 0 mm 0 mps 715 mmHg 92%
    01:00 +18°C° 0 mm 1 mps 715 mmHg 92%
    02:00 +16°C° 0 mm 0 mps 715 mmHg 92%
    03:00 +16°C° 0 mm 0 mps 715 mmHg 93%
    04:00 +15°C° 0 mm 0 mps 715 mmHg 93%
    05:00 +16°C° 0 mm 0 mps 715 mmHg 92%
    06:00 +17°C° 0 mm 0 mps 715 mmHg 92%
    07:00 +18°C° 0 mm 0 mps 716 mmHg 91%
    08:00 +20°C° 0 mm 0 mps 716 mmHg 84%
    09:00 +24°C° 0 mm 1 mps 716 mmHg 77%
    10:00 +26°C° 0 mm 1 mps 716 mmHg 70%
    11:00 +27°C° 0 mm 1 mps 716 mmHg 68%
    12:00 +27°C° 0 mm 2 mps 716 mmHg 66%
    13:00 +28°C° 0 mm 2 mps 716 mmHg 64%
    14:00 +28°C° 0 mm 2 mps 716 mmHg 64%
    15:00 +28°C° 0 mm 2 mps 716 mmHg 64%
    16:00 +28°C° 0 mm 2 mps 716 mmHg 64%
    17:00 +26°C° 0 mm 2 mps 716 mmHg 70%
    18:00 +25°C° 0 mm 2 mps 716 mmHg 76%
    19:00 +24°C° 0 mm 2 mps 716 mmHg 82%
    20:00 +23°C° 0 mm 2 mps 716 mmHg 84%
    21:00 +20°C° 0 mm 2 mps 716 mmHg 87%
    22:00 +19°C° 0 mm 2 mps 716 mmHg 90%
    23:00 +18°C° 0 mm 2 mps 715 mmHg 90%

    23 July, Tuesday

    Time Temperature Precipitation Wind Pressure Humidity
    00:00 +18°C° 0 mm 2 mps 715 mmHg 91%
    01:00 +18°C° 0 mm 1 mps 715 mmHg 92%
    02:00 +18°C° 0 mm 1 mps 715 mmHg 92%
    03:00 +18°C° 0 mm 1 mps 715 mmHg 93%
    04:00 +16°C° 0 mm 1 mps 714 mmHg 93%
    05:00 +18°C° 0 mm 1 mps 714 mmHg 92%
    06:00 +19°C° 0 mm 1 mps 714 mmHg 90%
    07:00 +19°C° 0 mm 2 mps 714 mmHg 89%
    08:00 +21°C° 0 mm 2 mps 715 mmHg 82%
    09:00 +24°C° 0 mm 3 mps 715 mmHg 76%
    10:00 +27°C° 0 mm 3 mps 715 mmHg 70%
    11:00 +27°C° 0 mm 3 mps 714 mmHg 66%
    12:00 +28°C° 0 mm 3 mps 714 mmHg 63%
    13:00 +29°C° 0 mm 3 mps 714 mmHg 59%
    14:00 +29°C° 0 mm 4 mps 714 mmHg 61%
    15:00 +29°C° 0 mm 4 mps 713 mmHg 62%
    16:00 +29°C° 0 mm 4 mps 713 mmHg 63%
    17:00 +27°C° 0 mm 4 mps 713 mmHg 69%
    18:00 +26°C° 0 mm 3 mps 713 mmHg 74%
    19:00 +25°C° 0 mm 3 mps 713 mmHg 80%
    20:00 +22°C° 0 mm 3 mps 713 mmHg 82%
    21:00 +21°C° 0 mm 2 mps 712 mmHg 84%
    22:00 +19°C° 0 mm 2 mps 712 mmHg 86%
    23:00 +18°C° 0 mm 2 mps 712 mmHg 87%

    24 July, Wednesday

    Time Temperature Precipitation Wind Pressure Humidity
    00:00 +19°C° 0 mm 1 mps 712 mmHg 89%
    01:00 +18°C° 0 mm 1 mps 712 mmHg 90%
    02:00 +18°C° 0 mm 1 mps 712 mmHg 91%
    03:00 +18°C° 0 mm 1 mps 712 mmHg 91%
    04:00 +16°C° 0 mm 0 mps 712 mmHg 92%
    05:00 +17°C° 0 mm 0 mps 712 mmHg 89%
    06:00 +18°C° 0 mm 0 mps 712 mmHg 87%
    07:00 +19°C° 0 mm 0 mps 712 mmHg 85%
    08:00 +22°C° 0 mm 0 mps 713 mmHg 79%
    09:00 +24°C° 0 mm 0 mps 713 mmHg 72%
    10:00 +28°C° 0 mm 1 mps 713 mmHg 66%
    11:00 +29°C° 0 mm 1 mps 713 mmHg 62%
    12:00 +30°C° 0 mm 1 mps 713 mmHg 59%
    13:00 +31°C° 0 mm 2 mps 713 mmHg 56%
    14:00 +31°C° 0 mm 2 mps 712 mmHg 57%
    15:00 +30°C° 0 mm 2 mps 712 mmHg 59%
    16:00 +30°C° 0 mm 2 mps 712 mmHg 61%
    17:00 +29°C° 0 mm 2 mps 712 mmHg 67%
    18:00 +27°C° 0 mm 2 mps 712 mmHg 74%
    19:00 +26°C° 0 mm 2 mps 712 mmHg 80%
    20:00 +25°C° 0 mm 1 mps 712 mmHg 84%
    21:00 +23°C° 0 mm 1 mps 712 mmHg 87%
    22:00 +21°C° 0 mm 1 mps 712 mmHg 90%
    23:00 +21°C° 0 mm 1 mps 712 mmHg 90%
    Show more